RH
95 96 84 82 83 76 78 84 84 87 93 82 79 77 80 78 92 94 88 82 92 97 81 72 66 76 82 83 91 80 82 90 95 97 95 94 96 85 95 68 96 97 97 96 94 92 85 60 66 75 79 76 73 72
84 91 88 80 81 76 80 82 85 91 91 87 74 75 77 99 100 100 94 90 92 98 91 83 83 79 77 75 79 84 83 93 96 97 96 95 96 94 93 94 98 97 98 93 76 75 68 88 86 83 89 75 58 55
88 82 86 94 79 74 89 91 84 81 86 88 85 79 86 88 86 91 92 94 100 100 90 88 74 48 59 70 66 85 89 80 94 86 94 92 98 91 99 93 93 98 100 100 92 90 90 88 83 84 80 71 56 68
99 89 68 74 72 73 84 80 80 81 74 75 74 75 71 91 90 83 94 86 99 97 100 83 60 66 52 57 64 69 63 66 78 89 95 98 93 80 95 80 88 99 99 99 100 99 96 81 72 68 60 70 74 84
92 86 70 76 81 83 80 80 80 74 74 80 91 93 93 80 73 87 85 85 90 86 96 95 76 48 42 50 65 65 71 79 90 93 99 97 90 96 92 93 98 92 70 97 98 81 97 93 74 74 84 88 86 84
80 74 74 76 77 79 78 77 74 80 81 78 85 91 92 86 88 100 100 93 94 94 100 97 72 79 50 58 73 81 77 84 89 94 95 95 90 86 98 98 65 65 65 59 62 71 73 77 81 79 84 82 82 85
78 77 69 69 74 80 77 72 72 78 77 81 84 90 90 87 98 99 92 76 85 96 100 94 95 73 65 67 81 85 75 87 88 98 99 96 89 83 96 96 91 82 76 73 70 68 72 81 86 75 80 84 82 83
78 75 85 80 82 82 81 81 78 79 85 84 85 99 99 99 100 100 84 94 97 92 94 99 93 88 65 83 91 91 96 95 99 100 100 99 92 100 98 98 86 82 75 72 74 71 76 70 72 77 74 75 83 90
84 79 84 83 82 82 83 76 80 83 92 99 100 100 100 100 100 97 82 98 84 83 96 92 97 92 73 83 86 96 97 99 98 99 98 98 97 98 95 87 86 86 87 87 78 78 77 82 82 83 76 80 88 90
76 80 82 82 82 81 83 90 88 95 99 100 100 100 99 99 93 84 100 100 100 100 100 98 89 97 85 95 100 100 100 99 100 95 93 100 99 97 90 86 84 84 81 79 87 92 89 91 93 89 87 86 88 87
92 89 79 75 83 87 96 98 98 99 100 100 100 100 99 88 93 100 97 98 97 97 92 86 86 94 81 90 94 99 98 98 98 85 97 97 97 94 84 81 79 76 76 75 75 76 79 87 92 92 90 86 83 83
90 92 96 99 98 98 99 99 100 100 98 95 97 98 100 98 100 98 97 97 96 91 94 91 84 88 90 89 95 98 95 93 90 94 99 96 93 88 83 78 76 83 80 77 75 77 80 83 89 90 88 88 92 95
98 98 99 100 99 99 100 99 100 92 98 90 96 100 97 98 99 99 97 97 94 96 97 99 99 94 97 95 98 95 94 94 87 100 92 91 91 86 86 83 78 80 87 80 79 84 84 84 91 94 91 96 98 98
100 100 100 98 99 98 100 97 94 99 84 99 99 98 95 98 94 92 91 90 91 95 96 98 98 95 99 94 97 98 92 94 98 97 95 94 95 90 89 88 85 88 84 94 88 86 91 94 96 98 99 98 96 96
100 94 93 97 99 100 98 93 100 96 99 99 91 99 99 91 98 98 98 91 98 98 96 96 96 96 98 97 88 92 85 88 97 96 98 89 95 96 95 90 97 92 95 96 98 99 99 98 97 98 99 98 96 96
93 99 99 98 100 99 97 99 88 96 93 85 90 96 98 95 98 97 98 99 97 98 97 91 95 99 98 94 88 82 92 96 95 99 99 99 98 100 99 98 99 96 95 97 100 100 99 100 99 100 96 96 97 96
100 97 99 100 100 100 99 82 85 98 97 90 99 96 97 96 98 98 98 96 97 99 96 92 85 83 94 95 96 97 98 97 96 99 99 99 97 99 100 99 100 96 95 97 96 95 96 92 88 89 96 99 97 97
98 100 100 100 97 97 96 91 96 93 94 95 95 97 94 96 96 96 96 95 98 98 94 97 85 93 97 95 98 98 97 97 98 98 98 99 96 97 97 97 99 96 96 96 92 92 89 90 96 99 98 98 97 98
100 100 100 97 85 91 98 85 74 95 97 97 97 96 96 97 94 94 94 95 96 94 89 88 92 100 99 98 98 97 98 99 99 98 98 97 99 100 98 97 98 98 97 93 96 94 96 95 97 96 96 94 98 98
98 99 97 84 57 76 96 87 68 83 97 97 92 97 98 96 96 96 91 92 87 94 94 95 98 97 98 97 98 98 98 98 99 100 97 98 96 98 93 90 94 97 97 99 98 97 97 99 97 97 96 96 96 99
77 76 69 54 62 63 86 92 95 92 89 90 93 89 97 94 97 96 94 78 91 98 97 98 97 97 96 97 96 98 96 97 98 99 99 99 96 95 98 99 97 97 96 95 96 98 96 96 97 97 95 96 96 96
99 89 71 58 82 82 92 88 90 94 93 95 98 89 97 98 99 96 88 92 97 98 98 98 97 97 98 98 97 97 98 96 90 91 92 92 97 96 97 98 94 96 96 96 95 96 96 96 96 96 96 97 96 97
79 66 65 72 88 84 93 98 94 94 95 99 93 93 99 98 97 78 98 98 98 96 96 96 96 95 96 94 91 91 95 94 99 99 98 98 98 98 98 98 94 93 96 97 96 96 96 96 96 96 96 96 96 97
53 77 90 92 85 97 96 97 90 93 96 94 93 98 97 98 83 90 100 100 98 94 94 95 96 96 83 85 94 97 100 94 92 96 98 92 96 100 97 98 96 96 94 96 96 96 96 96 96 96 96 96 96 97
78 85 84 87 86 90 95 97 94 89 97 96 94 97 97 92 95 95 96 96 95 95 96 92 91 94 97 98 94 97 99 96 97 98 99 98 94 92 95 96 96 95 94 94 96 96 96 96 96 95 96 95 96 96
94 93 90 98 95 91 94 97 96 96 92 95 95 95 87 88 91 100 92 98 99 98 100 100 100 99 97 99 98 97 99 96 88 95 99 98 97 95 96 96 95 96 97 94 94 95 95 95 94 94 95 94 92 92
96 97 86 63 77 77 91 88 81 90 98 100 96 95 89 99 100 98 96 97 99 98 99 97 93 96 100 97 96 98 97 95 94 99 98 97 96 96 95 96 96 97 96 96 95 92 92 96 94 93 94 93 89 86
90 83 92 94 89 84 94 96 98 100 99 92 84 99 100 100 100 98 100 98 99 89 92 95 95 95 96 97 98 97 98 98 97 94 93 94 95 96 96 96 96 96 94 95 96 96 94 90 91 91 91 91 92 88
94 92 83 97 94 96 100 100 100 97 93 96 99 100 100 98 99 98 97 96 97 91 96 100 100 97 94 95 96 96 96 96 87 93 96 98 94 95 97 94 96 96 96 95 96 95 95 94 93 90 86 86 88 89
92 93 93 99 96 100 100 99 100 100 96 94 91 82 93 97 98 85 78 76 85 96 99 99 97 87 95 92 97 98 98 97 95 92 97 100 99 99 98 94 92 95 96 96 95 96 97 94 95 95 95 97 95 87
90 92 95 96 100 100 96 92 74 75 96 97 99 100 100 100 98 99 91 86 85 86 83 85 82 80 81 83 90 93 94 98 99 99 98 98 98 96 95 95 96 96 93 80 79 86 94 94 92 92 93 95 98 98
95 100 99 98 100 97 99 100 100 98 100 100 100 100 100 99 100 99 99 88 77 87 96 92 91 95 88 80 63 62 66 72 76 87 97 98 96 96 96 97 95 92 93 94 92 92 87 92 97 98 93 94 95 92
94 97 100 100 100 100 99 95 100 100 100 100 100 100 100 98 100 95 100 95 86 84 93 94 92 95 100 98 96 96 94 77 72 77 77 78 82 90 96 96 98 96 86 84 94 96 97 98 96 94 92 94 96 100
Wind_Speed
24 23 22 24 22 23 20 18 18 17 17 16 13 12 11 13 14 18 11 15 13 2 6 5 3 3 3 1 2 4 5 3 3 4 2 2 2 2 3 6 5 3 2 2 3 3 7 2 5 1 2 11 5 0
26 23 22 23 24 23 21 19 19 17 16 17 14 13 9 12 14 17 8 13 22 5 5 13 19 21 19 17 3 3 3 2 1 2 1 2 3 3 2 3 1 3 3 1 5 4 3 4 4 6 5 5 4 1
28 27 24 22 23 24 21 20 19 19 19 19 16 16 13 14 15 16 11 9 8 2 5 5 9 25 19 27 23 3 2 3 2 2 1 1 5 2 2 2 4 3 3 1 2 2 9 9 9 3 4 4 8 4
28 28 25 27 27 26 22 21 20 20 19 17 17 17 15 17 17 14 15 14 10 2 3 5 8 11 10 9 19 25 13 2 2 2 2 2 3 3 2 5 7 3 6 7 2 3 9 6 9 10 10 4 3 8
28 28 26 27 26 25 23 21 19 21 20 18 18 19 17 17 18 18 18 19 19 4 2 4 15 31 20 26 22 21 13 4 2 2 3 2 3 2 2 2 3 2 5 3 3 6 5 10 15 10 9 10 8 7
28 29 28 30 28 26 24 22 20 21 22 21 18 19 19 19 16 12 4 18 23 22 2 3 5 5 15 11 11 11 11 3 3 3 3 3 4 2 3 2 4 11 13 10 4 3 5 7 10 9 9 9 9 11
29 28 29 29 28 26 26 25 23 22 22 22 20 20 19 18 19 5 3 2 27 22 2 4 4 4 3 6 2 2 7 3 3 2 4 3 3 2 2 3 10 13 12 13 17 7 5 11 5 6 7 10 10 12
24 27 27 29 28 27 27 26 24 24 25 24 21 20 20 19 17 12 6 4 25 6 2 3 4 3 5 2 2 3 3 3 3 3 2 3 2 2 3 3 8 13 13 13 16 13 10 10 8 3 5 6 8 7
24 24 25 25 26 26 27 26 26 27 26 24 21 19 15 11 6 11 7 15 19 3 4 3 2 3 1 2 1 2 2 2 2 3 3 3 3 2 5 6 8 9 8 11 12 10 13 13 14 12 8 5 6 5
25 25 26 27 27 27 28 27 28 29 26 22 18 8 3 9 21 24 8 2 3 3 3 4 3 3 1 1 2 1 2 2 2 3 3 2 2 7 8 6 6 8 10 11 9 12 13 12 12 12 9 6 5 5
26 27 29 29 29 28 28 31 28 22 18 13 4 3 15 34 8 2 3 3 2 2 4 4 8 2 2 2 2 2 1 1 0 2 2 2 2 3 7 7 7 8 8 9 8 9 9 9 9 8 6 5 5 5
29 29 29 29 29 31 27 27 26 22 16 16 15 21 13 3 3 4 4 3 5 5 4 5 4 5 3 2 2 1 1 1 3 1 3 3 2 5 6 7 7 6 7 8 11 9 10 10 12 9 6 5 6 7
29 32 33 29 27 28 26 30 29 30 39 25 5 4 4 2 5 7 8 4 4 3 4 4 3 4 1 1 2 2 2 4 1 1 0 2 2 3 4 4 6 7 9 10 9 11 11 10 12 11 8 7 6 8
24 23 20 20 24 30 39 40 40 38 9 3 5 7 4 5 5 4 3 4 4 2 5 3 3 2 1 2 2 3 3 1 2 2 2 1 3 3 4 3 4 6 7 6 8 10 10 10 9 12 11 8 7 9
24 22 22 25 27 29 45 40 35 11 4 3 3 5 5 3 2 2 2 3 2 1 3 3 2 2 2 3 1 2 3 3 1 3 2 0 2 3 3 4 3 3 4 5 7 7 10 10 10 12 12 10 11 13
31 25 21 27 35 45 42 37 13 4 3 3 5 2 1 3 2 2 2 2 3 0 1 2 3 3 1 4 3 2 2 3 2 1 1 0 1 3 2 3 1 2 2 4 7 7 9 10 10 10 13 14 13 15
30 8 28 41 47 46 33 12 5 4 3 3 3 3 2 4 4 2 3 3 4 0 2 2 4 5 1 2 2 3 3 2 1 1 1 1 1 1 2 2 1 2 2 3 5 7 7 7 9 12 10 12 15 16
37 49 54 49 44 29 8 7 4 3 5 4 3 2 3 4 2 3 3 4 3 2 2 2 3 3 2 3 2 2 2 2 2 1 2 2 2 2 0 1 0 2 2 4 5 5 6 8 10 8 12 12 15 15
38 43 39 33 18 8 3 4 3 4 3 2 2 2 3 3 4 4 4 5 5 6 3 3 5 2 1 1 0 2 2 1 2 3 2 2 3 3 1 1 1 3 4 5 4 5 7 8 8 8 8 9 10 10
30 25 23 15 6 5 4 2 4 4 3 1 2 2 3 3 1 2 7 6 3 3 5 4 1 2 2 1 1 1 2 2 2 2 3 2 1 2 2 3 5 7 9 9 9 7 9 8 6 6 8 10 11 10
24 19 14 8 5 9 4 2 3 2 3 3 2 2 2 2 3 4 3 4 4 3 2 1 1 1 1 2 6 5 6 5 2 2 1 2 2 4 6 1 4 6 6 7 7 7 7 7 7 8 10 11 12 13
10 12 7 9 5 4 4 4 4 3 3 3 2 2 3 2 2 2 1 5 3 1 0 1 2 1 2 3 7 9 8 7 8 8 9 7 2 3 6 4 4 6 7 6 6 7 7 7 8 9 12 13 14 15
8 4 4 4 4 4 1 1 4 2 4 2 2 3 3 2 1 1 3 2 1 2 6 2 6 10 8 8 9 14 14 9 8 9 9 9 9 8 8 7 4 7 7 6 6 8 9 9 11 13 14 14 15 15
6 5 4 3 4 3 2 2 2 3 3 2 3 3 2 2 1 3 3 2 1 6 5 7 4 2 5 7 4 7 12 8 9 12 12 9 8 9 8 8 8 7 5 7 8 10 10 12 12 14 14 14 14 13
6 7 4 5 4 4 4 3 3 4 3 2 3 2 2 2 2 3 2 1 1 3 3 6 8 6 2 1 4 8 12 10 8 5 13 10 8 9 10 9 8 6 6 9 9 10 10 10 11 12 12 12 12 12
6 4 4 2 3 3 2 3 2 3 3 2 2 2 2 3 3 3 2 1 1 1 1 2 1 2 3 8 2 7 9 6 8 9 12 11 10 8 7 5 5 7 2 4 7 9 10 9 10 11 11 10 10 12
5 3 2 4 2 3 4 3 4 4 4 2 1 2 3 4 2 1 1 3 1 5 7 8 8 9 5 6 9 11 12 12 13 12 11 14 14 12 9 7 7 7 3 2 4 7 9 9 10 9 9 8 9 10
3 3 4 4 5 4 4 3 3 2 1 2 3 4 4 5 2 0 1 5 12 11 12 11 9 8 8 6 5 8 12 12 11 13 15 16 16 14 12 10 7 6 6 6 4 4 6 7 9 9 9 9 9 7
3 2 4 5 5 5 4 2 1 1 2 2 4 2 2 2 4 4 5 9 11 11 12 12 10 8 11 11 9 5 2 3 4 5 6 3 8 13 12 10 9 8 6 6 6 5 5 5 6 7 7 7 7 6
1 1 4 3 4 4 2 1 0 2 2 3 4 4 3 4 8 11 11 10 12 13 12 10 8 8 9 10 12 15 14 11 9 6 3 2 5 8 7 8 8 7 7 6 7 8 7 6 7 8 8 8 8 8
2 3 4 4 4 1 2 2 11 9 3 4 4 4 2 2 6 11 10 9 9 8 9 11 12 10 8 8 6 5 7 8 8 7 5 4 3 4 5 6 5 3 3 5 5 5 5 6 7 8 7 6 6 6
3 3 4 4 1 2 2 3 2 3 2 3 3 2 3 3 2 4 2 2 4 8 8 8 11 11 11 12 11 10 8 6 5 4 3 3 4 4 4 4 3 3 2 0 1 4 4 5 5 3 4 5 5 5
4 4 4 4 2 0 3 4 3 2 3 2 1 2 1 4 3 4 1 2 4 6 8 6 7 7 6 7 8 9 9 7 6 6 5 4 3 3 3 3 3 3 3 3 3 3 4 5 4 4 4 3 3 5
Wind_Direction
225 224 228 232 237 238 231 225 229 229 237 240 246 246 236 218 205 210 220 214 198 238 269 238 265 236 319 249 242 292 352 305 359 3 27 303 259 307 308 275 295 300 252 161 146 177 263 329 303 161 15 258 271 187
222 219 219 226 225 228 226 222 229 233 230 234 240 240 241 219 214 207 216 220 217 214 257 283 282 267 245 237 213 248 217 262 231 97 17 284 289 293 303 310 297 281 284 252 180 210 322 316 257 162 257 265 293 283
222 215 218 222 225 226 229 229 224 228 232 234 241 234 235 228 228 208 207 199 205 242 284 265 253 272 266 249 231 220 261 241 193 191 213 267 274 294 291 290 282 286 286 302 263 22 333 324 314 254 217 249 306 9
218 213 219 226 225 230 227 226 235 235 234 239 234 236 241 232 224 217 224 219 201 267 264 281 301 283 282 272 228 224 232 219 68 107 235 211 255 217 273 282 295 264 314 331 342 3 322 326 304 291 296 335 139 54
215 218 221 224 228 226 226 233 235 232 233 237 234 232 236 235 228 221 231 228 218 194 259 284 298 285 273 252 234 228 208 172 166 221 233 235 254 273 238 273 264 233 11 332 291 277 252 259 275 342 46 38 64 85
218 219 220 221 227 226 228 234 239 238 237 236 233 229 231 229 219 223 215 231 220 213 268 294 276 269 264 232 201 184 192 177 177 173 224 230 260 250 264 257 351 359 340 326 288 134 288 354 60 64 75 70 65 73
219 221 220 224 228 227 230 239 242 240 238 237 236 231 227 224 211 195 198 242 199 190 235 281 284 266 253 188 181 160 166 181 158 181 218 224 256 187 268 268 348 354 341 9 13 351 4 17 33 59 87 87 73 73
225 221 221 226 229 230 233 233 239 240 236 233 230 225 221 217 231 201 215 219 166 152 185 260 269 309 178 158 168 172 155 157 181 203 212 215 229 211 237 60 14 359 351 14 1 11 8 12 21 74 81 79 66 58
227 228 225 227 231 232 238 239 240 237 241 232 220 213 210 208 203 168 182 168 164 184 193 213 235 258 265 116 145 209 181 175 176 199 210 184 194 233 65 48 34 13 10 336 343 21 10 11 356 4 11 49 74 76
231 233 236 237 240 240 242 237 240 247 238 216 176 168 188 179 139 141 144 156 188 193 240 218 181 260 222 103 209 231 188 187 197 211 142 228 98 80 64 58 40 15 1 1 357 4 357 358 353 357 12 34 61 83
236 239 243 244 241 242 236 242 238 226 183 159 152 164 138 133 104 166 185 190 213 224 211 225 200 185 254 158 200 203 291 81 251 250 196 213 116 73 38 32 42 20 11 6 1 352 351 344 342 350 1 26 68 84
241 241 239 239 240 243 232 221 225 173 156 159 125 125 144 118 153 162 183 200 201 223 197 188 205 190 268 116 106 233 182 22 248 192 224 153 87 41 29 8 16 27 14 7 5 352 351 351 350 354 4 28 49 79
243 246 246 236 228 226 225 188 166 145 130 123 102 147 151 171 170 185 183 195 199 205 186 171 173 160 174 102 82 116 187 233 22 35 251 67 87 40 9 356 358 23 21 3 360 4 2 358 11 15 14 30 68 85
238 236 223 187 170 166 164 153 146 141 136 122 154 139 181 183 214 188 184 169 218 199 150 123 128 144 132 76 125 159 242 266 250 245 192 106 23 10 6 27 10 360 8 360 360 3 13 8 10 24 30 41 78 83
192 185 183 180 179 169 153 154 149 141 79 92 108 160 186 208 116 126 114 121 12 130 131 92 73 75 62 99 199 137 189 238 206 222 201 54 10 352 359 13 21 17 354 357 360 6 10 21 32 35 43 59 88 99
198 188 185 174 166 159 150 149 121 78 58 55 34 100 145 92 60 42 39 87 4 49 152 56 109 64 161 143 164 181 197 229 242 202 230 324 358 359 339 12 84 78 31 18 33 34 42 44 52 58 65 70 83 99
157 133 165 149 141 138 136 127 72 61 69 53 23 13 15 61 61 38 23 351 316 286 123 127 157 203 182 107 121 17 173 247 189 278 291 252 223 325 301 5 58 121 127 105 76 65 69 76 79 72 61 67 86 95
111 124 127 128 126 112 73 51 76 69 76 43 68 10 57 25 29 27 348 343 355 34 46 87 74 69 86 155 245 286 337 317 11 335 268 274 279 286 324 143 54 195 166 121 108 93 83 79 76 75 87 92 90 91
110 118 126 129 123 89 81 33 67 91 80 92 109 60 70 92 54 18 5 360 44 25 73 46 68 82 166 35 149 297 304 339 313 301 280 280 330 308 143 110 116 163 162 161 140 105 97 102 108 112 115 114 95 102
101 104 108 106 95 89 91 53 72 82 101 138 60 39 65 70 8 18 27 20 38 49 49 47 93 215 171 259 297 283 273 283 288 339 319 310 334 168 217 195 154 134 120 114 116 121 114 98 104 120 128 126 114 107
94 94 90 91 69 69 91 107 76 97 115 88 163 75 76 34 34 18 22 357 55 37 56 27 263 283 103 35 9 340 324 333 353 36 318 309 347 91 56 173 164 143 118 114 97 91 105 101 114 124 125 118 124 123
104 79 60 46 73 63 72 20 115 121 75 137 97 78 65 52 27 14 15 39 61 342 27 287 281 125 41 16 8 22 20 49 54 46 38 36 18 20 28 47 101 89 100 109 117 106 102 114 124 127 123 116 119 117
113 81 61 62 80 69 103 35 82 82 98 145 97 76 49 65 130 95 66 63 58 340 327 313 70 89 75 52 46 39 35 44 37 35 39 50 58 58 64 65 96 112 94 91 122 120 114 122 124 120 121 118 117 115
73 53 42 53 59 87 81 52 67 83 83 67 79 99 102 126 112 61 74 65 342 343 14 22 51 56 42 37 27 14 14 35 57 49 39 45 43 48 62 70 71 76 106 125 120 119 123 122 128 126 125 119 118 113
73 360 47 19 9 71 70 49 40 64 79 76 87 116 116 109 78 69 86 93 23 8 13 41 54 45 56 7 18 24 33 38 43 51 30 40 58 64 59 66 76 94 119 119 118 122 124 127 129 132 134 131 127 133
73 341 56 24 352 75 46 84 73 101 92 78 67 54 63 79 70 69 72 190 237 346 334 18 72 56 48 36 22 11 7 39 79 66 36 45 54 56 46 40 36 43 113 118 136 135 133 136 141 143 142 145 149 148
76 10 18 22 359 74 69 52 43 67 67 82 18 52 68 70 93 110 85 32 93 64 76 78 84 80 66 49 57 59 69 78 83 83 78 69 66 63 63 51 22 17 36 155 169 164 164 161 158 157 153 159 165 168
84 53 73 331 60 33 91 58 52 67 62 24 68 51 110 152 170 204 96 65 130 106 89 80 81 83 77 69 82 103 100 87 93 89 79 69 64 57 53 55 58 48 56 63 88 145 163 164 161 160 161 161 167 174
48 5 76 39 51 49 42 87 110 15 345 78 111 116 109 58 351 48 62 103 134 127 107 95 83 88 79 72 74 86 92 55 107 76 63 28 21 32 37 38 49 59 68 76 78 93 117 130 143 152 152 155 151 152
15 75 88 66 58 49 327 130 354 283 359 103 101 105 63 48 42 92 98 98 94 94 93 99 99 89 79 79 72 64 64 68 76 89 109 62 22 30 40 44 48 54 60 85 102 115 129 134 138 138 141 144 152 153
75 68 72 51 74 34 170 86 79 64 43 49 39 88 101 133 69 67 80 89 98 110 107 91 79 71 75 71 69 73 55 59 69 76 78 66 35 25 34 40 44 49 60 79 91 111 126 140 141 139 139 146 157 169
36 78 115 101 132 261 27 79 87 95 12 57 350 46 27 48 38 351 56 86 94 101 99 99 92 81 75 71 70 71 67 64 56 50 43 38 29 25 24 24 24 15 18 49 81 168 142 151 153 161 162 165 173 173
51 49 49 82 73 49 286 91 41 70 33 50 358 147 132 143 181 225 77 87 91 117 124 107 92 96 96 75 64 58 49 46 50 45 39 30 14 10 14 28 36 17 30 65 95 128 168 173 167 165 157 165 184 201